Flag for Brazil Weather past 2 weeks in Rio Grande, Rio Grande do Sul, Brazil

Now
64 °F

Partly sunny.


Feels Like: 64 °F
Forecast: 49 / 65 °F
Wind: 12 mph from East

Location: Pelotas Airport

Current Time: Aug 29, 2014 at 3:17:17 PM

Latest Report: Aug 29, 2014 at 2:00 PM


Visibility: N/A

Pressure: 30.12 "Hg

Humidity: 68%

Dew point: 54 °F

Location of Rio GrandeLocation

Historic Weather in Rio Grande — Graph

°F

Rio Grande temperature yesterday

Maximum temperature yesterday: 59 °F (at 3:00 PM)
Minimum temperature yesterday: 41 °F (at 12:00 AM)
Average temperature yesterday: 49 °F

Past Weeks' High & Low Weather Summary

 TemperatureHumidityPressure
High88 °F (Aug 24, 12:00 PM)100% (Aug 15, 10:00 PM)30.42 "Hg (Aug 15, 10:00 PM)
Low36 °F (Aug 15, 6:00 AM)34% (Aug 14, 2:00 PM)29.59 "Hg (Aug 24, 9:00 PM)
Average58 °F82%30.08 "Hg
* Reported Aug 14 2:00 PM — Aug 29 2:00 PM, Rio Grande, Weather by CustomWeather, © 2014

Note: Actual official high and low records may vary slightly from our data, if they occured in-between our weather recording intervals... More about our weather records

Advertising

Rio Grande weather history for previous 24 hours

 ConditionsComfort  
Time TempWeatherWind HumidityBarometerVisibility
2:00 PM
Aug 29
64 °FPartly sunny.12 mph68%30.12 "HgN/A
1:00 PM63 °FPartly sunny.8 mph73%30.18 "HgN/A
12:00 PM61 °FPartly sunny.8 mph77%30.21 "HgN/A
11:00 AM61 °FPartly sunny.7 mph77%30.21 "HgN/A
10:00 AM57 °FBroken clouds.5 mph88%30.21 "HgN/A
9:00 AM55 °FBroken clouds.1 mph88%30.21 "Hg6 mi
8:00 AM50 °FPartly sunny.1 mph100%30.21 "Hg4 mi
7:00 AM50 °FOvercast.No wind94%30.18 "Hg5 mi
6:00 AM48 °FPartly sunny.No wind100%30.18 "HgN/A
5:00 AM48 °FPassing clouds.No wind100%30.18 "HgN/A
4:00 AM48 °FPassing clouds.No wind94%30.18 "HgN/A
3:00 AM48 °FPassing clouds.No wind94%30.21 "HgN/A
2:00 AM48 °FPartly cloudy.3 mph94%30.21 "HgN/A
1:00 AM43 °FPassing clouds.No wind93%30.21 "HgN/A
12:00 AM45 °FClear.No wind93%30.21 "Hg10 mi
11:00 PM
Aug 28
46 °FClear.3 mph93%30.21 "Hg10 mi
10:00 PM46 °FClear.No wind93%30.21 "Hg10 mi
9:00 PM46 °FClear.No wind93%30.21 "Hg10 mi
8:00 PM50 °FClear.1 mph88%30.21 "Hg10 mi
7:00 PM50 °FClear.3 mph82%30.21 "Hg10 mi
6:00 PM54 °FClear.6 mph72%30.18 "Hg10 mi
5:00 PM59 °FPassing clouds.7 mph63%30.18 "HgN/A
4:00 PM59 °FPassing clouds.7 mph59%30.18 "HgN/A
3:00 PM59 °FScattered clouds.5 mph55%30.18 "HgN/A
Weather by CustomWeather, © 2014

See weather overviewHow to use our weather pages